Terug naar catalogus

KUIPER-00221

ActiefCommunicatieLEO
NORAD 67147·PAYLOAD·🇺🇸 United States

Gelanceerd Dec 15, 2025 vanaf Cape Canaveral Space Force Station

Loading…

Volgende Passages (komende 24 uur)

TLE

VersSource: CelesTrak SupGP

Epoch: Sep 14, 2026, 18:12 UTC

1 67147C 25301Q   26257.75879630  .00004086  00000+0  53485-3 0  2575
2 67147  51.9015 324.5726 0000616  70.2083 282.7432 14.79931131    18

Volg KUIPER-00221 in realtime met AllMySat

Download on the App Store